,,Stat6,,Stat2,,Stat8,,Stat9,,Stat10,,Wind1,,Wind1,
time,status,PA1M_AVG,status,PR1M_SUM,status,RH1M_AVG,status,SR1M_AVG,status,TA1M_AVG,status,W1dAve1m,status,W1sAve1m,
2004-03-23, 00:00:00,VALID,918.573,VALID,0,VALID,95.0117,VALID,0.0679233,VALID,19.1549,VALID,63,VALID,0.403646,
2004-03-23, 00:01:00,VALID,918.533,VALID,0,VALID,94.9761,VALID,0.0169808,VALID,19.1208,VALID,63,VALID,0.200521,
2004-03-23, 00:02:00,VALID,918.531,VALID,0,VALID,95.2839,VALID,-0.0679233,VALID,19.0858,VALID,63,VALID,0.0191761,
2004-03-23, 00:03:00,VALID,918.524,VALID,0,VALID,95.5954,VALID,-0.0509425,VALID,19.1049,VALID,63,VALID,0,
2004-03-23, 00:04:00,VALID,918.507,VALID,0,VALID,95.7951,VALID,-0.0339617,VALID,19.0987,VALID,63,VALID,0,
2004-03-23, 00:05:00,VALID,918.508,VALID,0,VALID,96.0125,VALID,-0.0169808,VALID,19.1155,VALID,63,VALID,0,
2004-03-23, 00:06:00,VALID,918.496,VALID,0,VALID,96.0468,VALID,-0.0509425,VALID,19.118,VALID,63,VALID,0,
2004-03-23, 00:07:00,VALID,918.476,VALID,0,VALID,96.0926,VALID,-0.0169808,VALID,19.0987,VALID,63,VALID,0,
2004-03-23, 00:08:00,VALID,918.44,VALID,0,VALID,96.1638,VALID,-0.0339617,VALID,19.0962,VALID,63,VALID,0.256324,
2004-03-23, 00:09:00,VALID,918.402,VALID,0,VALID,96.3914,VALID,-0.0679233,VALID,19.0731,VALID,63,VALID,0.504542,
2004-03-23, 00:10:00,VALID,918.374,VALID,0,VALID,96.3546,VALID,-0.0509425,VALID,19.0348,VALID,115,VALID,0.622159,
2004-03-23, 00:11:00,VALID,918.361,VALID,0,VALID,96.3406,VALID,-0.0509425,VALID,18.9829,VALID,118,VALID,0.531064,
2004-03-23, 00:12:00,VALID,918.313,VALID,0,VALID,96.5898,VALID,-0.0849042,VALID,18.9447,VALID,118,VALID,0.525923,
2004-03-23, 00:13:00,VALID,918.295,VALID,0,VALID,96.8403,VALID,-0.101885,VALID,18.9218,VALID,118,VALID,0.59282,
2004-03-23, 00:14:00,VALID,918.295,VALID,0,VALID,96.8581,VALID,-0.0509425,VALID,18.9027,VALID,118,VALID,0.726944,
2004-03-23, 00:15:00,VALID,918.271,VALID,0,VALID,96.9064,VALID,-0.0339617,VALID,18.8665,VALID,126,VALID,0.694741,
2004-03-23, 00:16:00,VALID,918.262,VALID,0,VALID,97.0883,VALID,-0.0679233,VALID,18.8538,VALID,130,VALID,0.718205,
2004-03-23, 00:17:00,VALID,918.244,VALID,0,VALID,97.115,VALID,-0.0509425,VALID,18.8473,VALID,131,VALID,0.590116,
2004-03-23, 00:18:00,VALID,918.232,VALID,0,VALID,97.1302,VALID,-0.0679233,VALID,18.8448,VALID,132,VALID,0.612674,
2004-03-23, 00:19:00,VALID,918.225,VALID,0,VALID,97.1239,VALID,-0.0679233,VALID,18.8279,VALID,132,VALID,0.41915,
2004-03-23, 00:20:00,VALID,918.22,VALID,0,VALID,97.2447,VALID,-0.0509425,VALID,18.8245,VALID,132,VALID,0.427202,
2004-03-23, 00:21:00,VALID,918.211,VALID,0,VALID,97.2294,VALID,-0.0679233,VALID,18.8342,VALID,132,VALID,0.190407,
2004-03-23, 00:22:00,VALID,918.198,VALID,0,VALID,97.2065,VALID,-0.0509425,VALID,18.8443,VALID,132,VALID,0.514535,
2004-03-23, 00:23:00,VALID,918.175,VALID,0,VALID,97.3083,VALID,-0.0169808,VALID,18.8609,VALID,132,VALID,0.456352,
2004-03-23, 00:24:00,VALID,918.154,VALID,0,VALID,97.3261,VALID,-0.0509425,VALID,18.8736,VALID,132,VALID,0.461285,
2004-03-23, 00:25:00,VALID,918.137,VALID,0,VALID,97.2739,VALID,-0.0169808,VALID,18.8669,VALID,132,VALID,0.317827,
2004-03-23, 00:26:00,VALID,918.141,VALID,0,VALID,97.5626,VALID,-0.0509425,VALID,18.8898,VALID,132,VALID,0.529726,
2004-03-23, 00:27:00,VALID,918.128,VALID,0,VALID,97.7495,VALID,-0.0509425,VALID,18.9218,VALID,132,VALID,0.536058,
2004-03-23, 00:28:00,VALID,918.107,VALID,0,VALID,98.0026,VALID,-0.0509425,VALID,18.9673,VALID,132,VALID,0.53343,
2004-03-23, 00:29:00,VALID,918.107,VALID,0,VALID,98.0712,VALID,-0.0679233,VALID,18.9961,VALID,133,VALID,0.567765,
2004-03-23, 00:30:00,VALID,918.102,VALID,0,VALID,97.6313,VALID,-0.0509425,VALID,18.971,VALID,134,VALID,0.427024,
2004-03-23, 00:31:00,VALID,918.081,VALID,0,VALID,97.4392,VALID,-0.0169808,VALID,18.9142,VALID,134,VALID,0.466974,
2004-03-23, 00:32:00,VALID,918.087,VALID,0,VALID,97.5003,VALID,0.0679233,VALID,18.8918,VALID,153,VALID,0.639863,
2004-03-23, 00:33:00,VALID,918.085,VALID,0,VALID,97.6376,VALID,0.0679233,VALID,18.8623,VALID,160,VALID,0.647866,
2004-03-23, 00:34:00,VALID,918.08,VALID,0,VALID,97.6224,VALID,0.0509425,VALID,18.8397,VALID,160,VALID,0.539444,
2004-03-23, 00:35:00,VALID,918.072,VALID,0,VALID,97.7851,VALID,0.0509425,VALID,18.8369,VALID,160,VALID,0.563542,
2004-03-23, 00:36:00,VALID,918.06,VALID,0,VALID,98.1005,VALID,0.0509425,VALID,18.8595,VALID,160,VALID,0.606712,
2004-03-23, 00:37:00,VALID,918.027,VALID,0,VALID,98.1005,VALID,0.0169808,VALID,18.8692,VALID,160,VALID,0.449963,
2004-03-23, 00:38:00,VALID,917.999,VALID,0,VALID,97.8093,VALID,0.0509425,VALID,18.8335,VALID,153,VALID,0.494913,
2004-03-23, 00:39:00,VALID,917.978,VALID,0,VALID,97.911,VALID,0.0509425,VALID,18.8307,VALID,142,VALID,0.504542,
2004-03-23, 00:40:00,VALID,917.968,VALID,0,VALID,98.0687,VALID,0,VALID,18.8369,VALID,139,VALID,0.649891,
2004-03-23, 00:41:00,VALID,917.953,VALID,0,VALID,98.2289,VALID,0.0169808,VALID,18.8724,VALID,140,VALID,0.703125,
2004-03-23, 00:42:00,VALID,917.957,VALID,0,VALID,98.2378,VALID,0.0339617,VALID,18.9176,VALID,144,VALID,0.682231,
2004-03-23, 00:43:00,VALID,917.943,VALID,0,VALID,98.2404,VALID,0.0169808,VALID,18.9502,VALID,144,VALID,0.470117,
2004-03-23, 00:44:00,VALID,917.949,VALID,0,VALID,98.2404,VALID,0.0169808,VALID,18.9728,VALID,142,VALID,0.521443,
2004-03-23, 00:45:00,VALID,917.937,VALID,0,VALID,98.145,VALID,0,VALID,19.002,VALID,142,VALID,0.53125,
2004-03-23, 00:46:00,VALID,917.927,VALID,0,VALID,98.0534,VALID,0.0339617,VALID,18.9983,VALID,142,VALID,0.485119,
2004-03-23, 00:47:00,VALID,917.912,VALID,0,VALID,98.056,VALID,0.0339617,VALID,19.0145,VALID,142,VALID,0.330469,
2004-03-23, 00:48:00,VALID,917.903,VALID,0,VALID,97.972,VALID,0.0169808,VALID,19.0242,VALID,142,VALID,0.38548,
2004-03-23, 00:49:00,VALID,917.879,VALID,0,VALID,97.8067,VALID,0.0339617,VALID,19.0373,VALID,142,VALID,0.36899,
2004-03-23, 00:50:00,VALID,917.856,VALID,0,VALID,97.4825,VALID,0.0849042,VALID,19.0209,VALID,142,VALID,0.356286,
2004-03-23, 00:51:00,VALID,917.83,VALID,0,VALID,97.218,VALID,0.0339617,VALID,18.9845,VALID,142,VALID,0.410429,
2004-03-23, 00:52:00,VALID,917.814,VALID,0,VALID,97.3986,VALID,0.0339617,VALID,18.9986,VALID,134,VALID,0.43407,
2004-03-23, 00:53:00,VALID,917.807,VALID,0,VALID,97.5511,VALID,0.0339617,VALID,19.005,VALID,134,VALID,0.375,
2004-03-23, 00:54:00,VALID,917.795,VALID,0,VALID,97.2574,VALID,0.0169808,VALID,19.0048,VALID,134,VALID,0.117001,
2004-03-23, 00:55:00,VALID,917.792,VALID,0,VALID,97.1646,VALID,0.0169808,VALID,18.9859,VALID,134,VALID,0.194425,
2004-03-23, 00:56:00,VALID,917.783,VALID,0,VALID,96.7615,VALID,0.0169808,VALID,18.9243,VALID,134,VALID,0.428925,
2004-03-23, 00:57:00,VALID,917.778,VALID,0,VALID,96.6648,VALID,0.0509425,VALID,18.8535,VALID,132,VALID,0.474746,
2004-03-23, 00:58:00,VALID,917.754,VALID,0,VALID,96.7081,VALID,0.0679233,VALID,18.8116,VALID,130,VALID,0.424479,
2004-03-23, 00:59:00,VALID,917.741,VALID,0,VALID,96.9955,VALID,0,VALID,18.779,VALID,117,VALID,0.483259,
2004-03-23, 01:00:00,VALID,917.726,VALID,0,VALID,96.9522,VALID,0.0339617,VALID,18.7696,VALID,116,VALID,0.579459,
2004-03-23, 01:01:00,VALID,917.718,VALID,0,VALID,96.764,VALID,0.0169808,VALID,18.7179,VALID,115,VALID,0.498197,
2004-03-23, 01:02:00,VALID,917.706,VALID,0,VALID,96.9802,VALID,0,VALID,18.6919,VALID,115,VALID,0.463021,
2004-03-23, 01:03:00,VALID,917.688,VALID,0,VALID,97.6262,VALID,0,VALID,18.7272,VALID,115,VALID,0.494606,
2004-03-23, 01:04:00,VALID,917.661,VALID,0,VALID,97.6885,VALID,0.0509425,VALID,18.7498,VALID,115,VALID,0.409702,
2004-03-23, 01:05:00,VALID,917.643,VALID,0,VALID,97.3973,VALID,0.0679233,VALID,18.7403,VALID,115,VALID,0.287427,
2004-03-23, 01:06:00,VALID,917.637,VALID,0,VALID,97.1773,VALID,0.0339617,VALID,18.7115,VALID,115,VALID,0.165153,
2004-03-23, 01:07:00,VALID,917.62,VALID,0,VALID,97.2307,VALID,0.0339617,VALID,18.6887,VALID,115,VALID,0,
2004-03-23, 01:08:00,VALID,917.594,VALID,0,VALID,97.4392,VALID,0.0339617,VALID,18.6988,VALID,115,VALID,0.125372,
2004-03-23, 01:09:00,VALID,917.568,VALID,0,VALID,97.4138,VALID,0,VALID,18.6887,VALID,115,VALID,0.225694,
2004-03-23, 01:10:00,VALID,917.566,VALID,0,VALID,97.5461,VALID,0.0339617,VALID,18.6921,VALID,115,VALID,0.040625,
2004-03-23, 01:11:00,VALID,917.553,VALID,0,VALID,97.7711,VALID,0,VALID,18.7018,VALID,115,VALID,0.0710069,
2004-03-23, 01:12:00,VALID,917.532,VALID,0,VALID,97.7533,VALID,0.0509425,VALID,18.6988,VALID,115,VALID,0.305043,
2004-03-23, 01:13:00,VALID,917.519,VALID,0,VALID,97.4532,VALID,0.0169808,VALID,18.6698,VALID,112,VALID,0.728561,
2004-03-23, 01:14:00,VALID,917.504,VALID,0,VALID,97.6681,VALID,0.0169808,VALID,18.6345,VALID,105,VALID,0.712798,
2004-03-23, 01:15:00,VALID,917.495,VALID,0,VALID,98.0979,VALID,0,VALID,18.6534,VALID,104,VALID,0.469638,
2004-03-23, 01:16:00,VALID,917.493,VALID,0,VALID,97.8462,VALID,0,VALID,18.6342,VALID,104,VALID,0.0167151,
2004-03-23, 01:17:00,VALID,917.494,VALID,0,VALID,97.8576,VALID,0,VALID,18.6084,VALID,104,VALID,0.0589489,
2004-03-23, 01:18:00,VALID,917.479,VALID,0,VALID,98.028,VALID,0,VALID,18.6181,VALID,104,VALID,0.346236,
2004-03-23, 01:19:00,VALID,917.465,VALID,0,VALID,97.6719,VALID,-0.0169808,VALID,18.5925,VALID,104,VALID,0.463299,
2004-03-23, 01:20:00,VALID,917.463,VALID,0,VALID,96.7424,VALID,0,VALID,18.4671,VALID,103,VALID,0.445122,
2004-03-23, 01:21:00,VALID,917.458,VALID,0,VALID,96.8645,VALID,0,VALID,18.3993,VALID,64,VALID,0.748402,
2004-03-23, 01:22:00,VALID,917.454,VALID,0,VALID,96.9688,VALID,-0.0339617,VALID,18.3377,VALID,55,VALID,0.99564,
2004-03-23, 01:23:00,VALID,917.456,VALID,0,VALID,97.5613,VALID,-0.0169808,VALID,18.3506,VALID,55,VALID,0.857986,
2004-03-23, 01:24:00,VALID,917.448,VALID,0,VALID,97.9021,VALID,-0.0169808,VALID,18.3705,VALID,55,VALID,0.557927,
2004-03-23, 01:25:00,VALID,917.445,VALID,0,VALID,98.2162,VALID,-0.0339617,VALID,18.4122,VALID,55,VALID,0.545058,
2004-03-23, 01:26:00,VALID,917.426,VALID,0,VALID,98.6295,VALID,-0.0169808,VALID,18.4675,VALID,55,VALID,0.65904,
2004-03-23, 01:27:00,VALID,917.413,VALID,0,VALID,98.7744,VALID,0,VALID,18.5086,VALID,55,VALID,0.664244,
2004-03-23, 01:28:00,VALID,917.408,VALID,0,VALID,98.159,VALID,0.0169808,VALID,18.4828,VALID,55,VALID,0.403274,
2004-03-23, 01:29:00,VALID,917.395,VALID,0,VALID,97.2104,VALID,-0.0169808,VALID,18.3866,VALID,55,VALID,0.339063,
2004-03-23, 01:30:00,VALID,917.368,VALID,0,VALID,97.5918,VALID,0,VALID,18.367,VALID,55,VALID,0.36849,
2004-03-23, 01:31:00,VALID,917.341,VALID,0,VALID,98.5176,VALID,0,VALID,18.441,VALID,55,VALID,0.335392,
2004-03-23, 01:32:00,VALID,917.335,VALID,0,VALID,98.3599,VALID,0,VALID,18.4924,VALID,55,VALID,0.015067,
2004-03-23, 01:33:00,VALID,917.337,VALID,0,VALID,97.9174,VALID,-0.0169808,VALID,18.4705,VALID,55,VALID,0.000381098,
2004-03-23, 01:34:00,VALID,917.348,VALID,0,VALID,97.8729,VALID,-0.0339617,VALID,18.4479,VALID,55,VALID,0,
2004-03-23, 01:35:00,VALID,917.346,VALID,0,VALID,98.0038,VALID,-0.0169808,VALID,18.4415,VALID,55,VALID,0.00093006,
2004-03-23, 01:36:00,VALID,917.315,VALID,0,VALID,97.9314,VALID,0,VALID,18.4249,VALID,55,VALID,0,
2004-03-23, 01:37:00,VALID,917.272,VALID,0,VALID,98.2404,VALID,0,VALID,18.4217,VALID,55,VALID,0.140443,
2004-03-23, 01:38:00,VALID,917.236,VALID,0,VALID,98.6371,VALID,-0.0169808,VALID,18.4537,VALID,55,VALID,0.351376,
2004-03-23, 01:39:00,VALID,917.209,VALID,0,VALID,98.501,VALID,-0.0169808,VALID,18.4636,VALID,55,VALID,0.0752668,
2004-03-23, 01:40:00,VALID,917.174,VALID,0,VALID,98.4667,VALID,-0.0169808,VALID,18.4735,VALID,55,VALID,0.0199653,
2004-03-23, 01:41:00,VALID,917.156,VALID,0,VALID,98.2556,VALID,-0.0169808,VALID,18.4507,VALID,55,VALID,0,
2004-03-23, 01:42:00,VALID,917.133,VALID,0,VALID,98.1386,VALID,-0.0169808,VALID,18.4447,VALID,55,VALID,0.0339134,
2004-03-23, 01:43:00,VALID,917.103,VALID,0,VALID,97.6707,VALID,-0.0339617,VALID,18.3861,VALID,55,VALID,0.189862,
2004-03-23, 01:44:00,VALID,917.092,VALID,0,VALID,97.4367,VALID,-0.0679233,VALID,18.332,VALID,55,VALID,0.157203,
2004-03-23, 01:45:00,VALID,917.066,VALID,0,VALID,97.5677,VALID,-0.0169808,VALID,18.2835,VALID,55,VALID,0,
2004-03-23, 01:46:00,VALID,917.043,VALID,0,VALID,97.9352,VALID,0,VALID,18.2865,VALID,55,VALID,0.0923295,
2004-03-23, 01:47:00,VALID,917.031,VALID,0,VALID,97.8563,VALID,-0.0169808,VALID,18.2831,VALID,55,VALID,0,
2004-03-23, 01:48:00,VALID,917.031,VALID,0,VALID,97.8118,VALID,-0.0339617,VALID,18.2672,VALID,55,VALID,0.0634527,
2004-03-23, 01:49:00,VALID,917.028,VALID,0,VALID,97.8144,VALID,0,VALID,18.254,VALID,55,VALID,0.341463,
2004-03-23, 01:50:00,VALID,917.029,VALID,0,VALID,97.9008,VALID,-0.0339617,VALID,18.2284,VALID,55,VALID,0.357558,
2004-03-23, 01:51:00,VALID,917.008,VALID,0,VALID,98.2671,VALID,-0.0339617,VALID,18.2317,VALID,59,VALID,0.523438,
2004-03-23, 01:52:00,VALID,916.989,VALID,0,VALID,98.3434,VALID,0,VALID,18.2549,VALID,66,VALID,0.530887,
2004-03-23, 01:53:00,VALID,916.963,VALID,0,VALID,98.4743,VALID,0,VALID,18.2317,VALID,71,VALID,0.526172,
2004-03-23, 01:54:00,VALID,916.964,VALID,0,VALID,98.5417,VALID,-0.0169808,VALID,18.2314,VALID,72,VALID,0.350654,
2004-03-23, 01:55:00,VALID,916.963,VALID,0,VALID,98.3713,VALID,0,VALID,18.2056,VALID,73,VALID,0.527249,
2004-03-23, 01:56:00,VALID,916.956,VALID,0,VALID,98.3624,VALID,-0.0509425,VALID,18.1865,VALID,74,VALID,0.469131,
2004-03-23, 01:57:00,VALID,916.965,VALID,0,VALID,98.6536,VALID,-0.0509425,VALID,18.1934,VALID,81,VALID,0.571378,
2004-03-23, 01:58:00,VALID,916.949,VALID,0,VALID,98.5188,VALID,-0.0679233,VALID,18.1835,VALID,92,VALID,0.652845,
2004-03-23, 01:59:00,VALID,916.95,VALID,0,VALID,98.777,VALID,-0.0679233,VALID,18.1904,VALID,120,VALID,0.81436,
2004-03-23, 02:00:00,VALID,916.963,VALID,0,VALID,99.0961,VALID,-0.0169808,VALID,18.2319,VALID,129,VALID,0.623611,
2004-03-23, 02:01:00,VALID,916.966,VALID,0,VALID,99.4547,VALID,0.0169808,VALID,18.2856,VALID,131,VALID,0.764172,
2004-03-23, 02:02:00,VALID,916.956,VALID,0,VALID,99.4191,VALID,0.101885,VALID,18.3433,VALID,131,VALID,0.332201,
2004-03-23, 02:03:00,VALID,916.933,VALID,0,VALID,99.1483,VALID,0.0679233,VALID,18.3564,VALID,131,VALID,0.261052,
2004-03-23, 02:04:00,VALID,916.917,VALID,0,VALID,98.6918,VALID,0.0849042,VALID,18.3336,VALID,131,VALID,0.223837,
2004-03-23, 02:05:00,VALID,916.904,VALID,0,VALID,98.5455,VALID,0.0849042,VALID,18.2953,VALID,131,VALID,0,
2004-03-23, 02:06:00,VALID,916.902,VALID,0,VALID,98.7045,VALID,0.0849042,VALID,18.2852,VALID,131,VALID,0,
2004-03-23, 02:07:00,VALID,916.902,VALID,0,VALID,99.0987,VALID,0.0849042,VALID,18.3144,VALID,131,VALID,0,
2004-03-23, 02:08:00,VALID,916.908,VALID,0,VALID,99.3021,VALID,0.0849042,VALID,18.3594,VALID,131,VALID,0.0817454,
2004-03-23, 02:09:00,VALID,916.908,VALID,0,VALID,99.2729,VALID,0.0849042,VALID,18.3917,VALID,131,VALID,0.536395,
2004-03-23, 02:10:00,VALID,916.874,VALID,0,VALID,99.2793,VALID,0.0849042,VALID,18.4147,VALID,131,VALID,0.533594,
2004-03-23, 02:11:00,VALID,916.859,VALID,0,VALID,99.1737,VALID,0.0679233,VALID,18.4108,VALID,131,VALID,0.566679,
2004-03-23, 02:12:00,VALID,916.853,VALID,0,VALID,98.824,VALID,0.101885,VALID,18.3956,VALID,131,VALID,0.45141,
2004-03-23, 02:13:00,VALID,916.833,VALID,0,VALID,98.7693,VALID,0.0679233,VALID,18.3529,VALID,131,VALID,0.446911,
2004-03-23, 02:14:00,VALID,916.821,VALID,0,VALID,98.6587,VALID,0.0509425,VALID,18.3308,VALID,131,VALID,0.322316,
2004-03-23, 02:15:00,VALID,916.814,VALID,0,VALID,98.5735,VALID,0.0679233,VALID,18.2918,VALID,131,VALID,0.175223,
2004-03-23, 02:16:00,VALID,916.814,VALID,0,VALID,98.707,VALID,0,VALID,18.2575,VALID,131,VALID,0.259909,
2004-03-23, 02:17:00,VALID,916.827,VALID,0,VALID,98.8965,VALID,-0.0339617,VALID,18.2646,VALID,131,VALID,0.180537,
2004-03-23, 02:18:00,VALID,916.831,VALID,0,VALID,99.0287,VALID,0,VALID,18.2805,VALID,131,VALID,0.319222,
2004-03-23, 02:19:00,VALID,916.836,VALID,0,VALID,99.0872,VALID,-0.0339617,VALID,18.2833,VALID,131,VALID,0.515811,
2004-03-23, 02:20:00,VALID,916.84,VALID,0,VALID,99.3199,VALID,-0.0169808,VALID,18.3255,VALID,132,VALID,0.43641,
2004-03-23, 02:21:00,VALID,916.832,VALID,0,VALID,99.6582,VALID,0,VALID,18.3829,VALID,132,VALID,0.367569,
2004-03-23, 02:22:00,VALID,916.817,VALID,0,VALID,99.7052,VALID,0,VALID,18.4712,VALID,132,VALID,0.436141,
2004-03-23, 02:23:00,VALID,916.804,VALID,0,VALID,99.6289,VALID,-0.0509425,VALID,18.5125,VALID,132,VALID,0.425967,
2004-03-23, 02:24:00,VALID,916.786,VALID,0,VALID,99.2144,VALID,-0.0169808,VALID,18.5192,VALID,132,VALID,0.433008,
2004-03-23, 02:25:00,VALID,916.77,VALID,0,VALID,98.6702,VALID,0,VALID,18.4288,VALID,132,VALID,0.49628,
2004-03-23, 02:26:00,VALID,916.747,VALID,0,VALID,99.1063,VALID,-0.0169808,VALID,18.4673,VALID,132,VALID,0.529018,
2004-03-23, 02:27:00,VALID,916.722,VALID,0,VALID,98.688,VALID,-0.0169808,VALID,18.4643,VALID,132,VALID,0.182776,
2004-03-23, 02:28:00,VALID,916.706,VALID,0,VALID,98.693,VALID,-0.0169808,VALID,18.4486,VALID,132,VALID,0,
2004-03-23, 02:29:00,VALID,916.678,VALID,0,VALID,98.6091,VALID,-0.0509425,VALID,18.4516,VALID,132,VALID,0.0591797,
2004-03-23, 02:30:00,VALID,916.654,VALID,0,VALID,98.5494,VALID,-0.0339617,VALID,18.4157,VALID,132,VALID,0.334449,
2004-03-23, 02:31:00,VALID,916.624,VALID,0,VALID,98.2989,VALID,-0.0169808,VALID,18.4166,VALID,132,VALID,0.0774306,
2004-03-23, 02:32:00,VALID,916.624,VALID,0,VALID,98.3548,VALID,-0.0169808,VALID,18.3675,VALID,132,VALID,0.348323,
2004-03-23, 02:33:00,VALID,916.61,VALID,0,VALID,98.5532,VALID,-0.0169808,VALID,18.3672,VALID,131,VALID,0.352706,
2004-03-23, 02:34:00,VALID,916.611,VALID,0,VALID,98.6269,VALID,-0.0169808,VALID,18.3576,VALID,130,VALID,0.227121,
2004-03-23, 02:35:00,VALID,916.597,VALID,0,VALID,98.9016,VALID,-0.0339617,VALID,18.3841,VALID,130,VALID,0.0866997,
2004-03-23, 02:36:00,VALID,916.587,VALID,0,VALID,99.0834,VALID,-0.0509425,VALID,18.4064,VALID,130,VALID,0,
2004-03-23, 02:37:00,VALID,916.591,VALID,0,VALID,99.634,VALID,-0.0339617,VALID,18.4839,VALID,130,VALID,0,
2004-03-23, 02:38:00,VALID,916.591,VALID,0,VALID,99.7904,VALID,-0.0339617,VALID,18.5942,VALID,130,VALID,0,
2004-03-23, 02:39:00,VALID,916.594,VALID,0,VALID,99.4344,VALID,-0.0169808,VALID,18.6458,VALID,130,VALID,0,
2004-03-23, 02:40:00,VALID,916.587,VALID,0,VALID,99.3581,VALID,-0.0169808,VALID,18.6518,VALID,130,VALID,0,
2004-03-23, 02:41:00,VALID,916.559,VALID,0,VALID,99.1941,VALID,-0.0169808,VALID,18.6615,VALID,130,VALID,0,
2004-03-23, 02:42:00,VALID,916.533,VALID,0,VALID,98.7782,VALID,-0.0169808,VALID,18.6488,VALID,130,VALID,0,
2004-03-23, 02:43:00,VALID,916.529,VALID,0,VALID,98.5888,VALID,-0.0339617,VALID,18.6071,VALID,130,VALID,0,
2004-03-23, 02:44:00,VALID,916.519,VALID,0,VALID,98.81,VALID,-0.0339617,VALID,18.6294,VALID,130,VALID,0,
2004-03-23, 02:45:00,VALID,916.517,VALID,0,VALID,98.5862,VALID,-0.0169808,VALID,18.6165,VALID,130,VALID,0,
2004-03-23, 02:46:00,VALID,916.515,VALID,0,VALID,98.571,VALID,-0.0169808,VALID,18.6131,VALID,130,VALID,0,
2004-03-23, 02:47:00,VALID,916.51,VALID,0,VALID,98.6918,VALID,-0.0339617,VALID,18.6161,VALID,130,VALID,0,
2004-03-23, 02:48:00,VALID,916.502,VALID,0,VALID,98.5748,VALID,-0.0169808,VALID,18.6225,VALID,130,VALID,0,
2004-03-23, 02:49:00,VALID,916.486,VALID,0,VALID,98.6841,VALID,-0.0169808,VALID,18.6292,VALID,130,VALID,0,
2004-03-23, 02:50:00,VALID,916.477,VALID,0,VALID,98.4985,VALID,-0.0509425,VALID,18.6096,VALID,130,VALID,0,
2004-03-23, 02:51:00,VALID,916.468,VALID,0,VALID,98.2772,VALID,-0.0339617,VALID,18.5773,VALID,130,VALID,0,
2004-03-23, 02:52:00,VALID,916.45,VALID,0,VALID,98.2671,VALID,-0.0169808,VALID,18.5612,VALID,130,VALID,0,
2004-03-23, 02:53:00,VALID,916.434,VALID,0,VALID,98.4336,VALID,0,VALID,18.5416,VALID,130,VALID,0,
2004-03-23, 02:54:00,VALID,916.422,VALID,0,VALID,98.1552,VALID,-0.0169808,VALID,18.5061,VALID,130,VALID,0.0517805,
2004-03-23, 02:55:00,VALID,916.412,VALID,0,VALID,98.0127,VALID,-0.0339617,VALID,18.4293,VALID,130,VALID,0.00520833,
2004-03-23, 02:56:00,VALID,916.408,VALID,0,VALID,98.3027,VALID,-0.0169808,VALID,18.4,VALID,130,VALID,0,
2004-03-23, 02:57:00,VALID,916.395,VALID,0,VALID,98.7693,VALID,-0.0339617,VALID,18.4327,VALID,130,VALID,0,
2004-03-23, 02:58:00,VALID,916.39,VALID,0,VALID,99.2678,VALID,0,VALID,18.4874,VALID,130,VALID,0,
2004-03-23, 02:59:00,VALID,916.382,VALID,0,VALID,99.2195,VALID,-0.0679233,VALID,18.5257,VALID,130,VALID,0.160342,
2004-03-23, 03:00:00,VALID,916.397,VALID,0,VALID,98.7401,VALID,-0.0509425,VALID,18.4906,VALID,130,VALID,0.381324,
2004-03-23, 03:01:00,VALID,916.397,VALID,0,VALID,98.8126,VALID,-0.0169808,VALID,18.4479,VALID,130,VALID,0.26391,
2004-03-23, 03:02:00,VALID,916.4,VALID,0,VALID,98.955,VALID,-0.0169808,VALID,18.4641,VALID,130,VALID,0.258152,
2004-03-23, 03:03:00,VALID,916.4,VALID,0,VALID,99.3339,VALID,0,VALID,18.5031,VALID,130,VALID,0.300967,
2004-03-23, 03:04:00,VALID,916.398,VALID,0,VALID,99.4344,VALID,0,VALID,18.5612,VALID,130,VALID,0.363104,
2004-03-23, 03:05:00,VALID,916.385,VALID,0,VALID,98.9817,VALID,0.0169808,VALID,18.5353,VALID,130,VALID,0.410342,
2004-03-23, 03:06:00,VALID,916.385,VALID,0,VALID,98.5875,VALID,0,VALID,18.4675,VALID,130,VALID,0.352582,
2004-03-23, 03:07:00,VALID,916.381,VALID,0,VALID,98.4489,VALID,0,VALID,18.3838,VALID,130,VALID,0.433594,
2004-03-23, 03:08:00,VALID,916.371,VALID,0,VALID,98.5494,VALID,0,VALID,18.3253,VALID,132,VALID,0.472656,
2004-03-23, 03:09:00,VALID,916.35,VALID,0,VALID,98.3891,VALID,0.0169808,VALID,18.2895,VALID,139,VALID,0.665587,
2004-03-23, 03:10:00,VALID,916.311,VALID,0,VALID,98.398,VALID,0.0339617,VALID,18.2284,VALID,137,VALID,0.704055,
2004-03-23, 03:11:00,VALID,916.275,VALID,0,VALID,98.7375,VALID,0,VALID,18.219,VALID,122,VALID,0.778525,
2004-03-23, 03:12:00,VALID,916.269,VALID,0,VALID,99.0974,VALID,0,VALID,18.2605,VALID,124,VALID,0.757227,
2004-03-23, 03:13:00,VALID,916.261,VALID,0,VALID,99.0987,VALID,0,VALID,18.2771,VALID,126,VALID,0.567845,
2004-03-23, 03:14:00,VALID,916.285,VALID,0,VALID,98.9092,VALID,0,VALID,18.2508,VALID,127,VALID,0.714844,
2004-03-23, 03:15:00,VALID,916.299,VALID,0,VALID,98.6409,VALID,0,VALID,18.216,VALID,127,VALID,0.389323,
2004-03-23, 03:16:00,VALID,916.301,VALID,0,VALID,98.3357,VALID,-0.0169808,VALID,18.1512,VALID,127,VALID,0.368902,
2004-03-23, 03:17:00,VALID,916.283,VALID,0,VALID,98.8024,VALID,0,VALID,18.1286,VALID,125,VALID,0.712536,
2004-03-23, 03:18:00,VALID,916.267,VALID,0,VALID,98.9525,VALID,0,VALID,18.154,VALID,122,VALID,0.597929,
2004-03-23, 03:19:00,VALID,916.265,VALID,0,VALID,98.852,VALID,-0.0169808,VALID,18.1092,VALID,118,VALID,0.59048,
2004-03-23, 03:20:00,VALID,916.271,VALID,0,VALID,99.325,VALID,0.0169808,VALID,18.1346,VALID,118,VALID,0.494606,
2004-03-23, 03:21:00,VALID,916.295,VALID,0,VALID,99.2424,VALID,0,VALID,18.151,VALID,119,VALID,0.612282,
2004-03-23, 03:22:00,VALID,916.295,VALID,0,VALID,99.2055,VALID,0,VALID,18.1355,VALID,132,VALID,0.814029,
2004-03-23, 03:23:00,VALID,916.303,VALID,0,VALID,99.4458,VALID,0.0169808,VALID,18.1316,VALID,141,VALID,0.910262,
2004-03-23, 03:24:00,VALID,916.307,VALID,0,VALID,99.6531,VALID,0.0339617,VALID,18.1766,VALID,144,VALID,1.04116,
2004-03-23, 03:25:00,VALID,916.305,VALID,0,VALID,99.6849,VALID,0.0169808,VALID,18.2121,VALID,141,VALID,0.929501,
2004-03-23, 03:26:00,VALID,916.331,VALID,0,VALID,99.7358,VALID,0.0509425,VALID,18.2446,VALID,138,VALID,0.794792,
2004-03-23, 03:27:00,VALID,916.329,VALID,0,VALID,99.7803,VALID,0,VALID,18.2732,VALID,145,VALID,0.833452,
2004-03-23, 03:28:00,VALID,916.327,VALID,0,VALID,99.8108,VALID,0,VALID,18.3188,VALID,146,VALID,0.638086,
2004-03-23, 03:29:00,VALID,916.341,VALID,0,VALID,99.6862,VALID,0.0169808,VALID,18.3285,VALID,145,VALID,0.201079,
2004-03-23, 03:30:00,VALID,916.327,VALID,0,VALID,99.5997,VALID,0,VALID,18.3223,VALID,145,VALID,0.14881,
2004-03-23, 03:31:00,VALID,916.318,VALID,0,VALID,99.5921,VALID,-0.0169808,VALID,18.3253,VALID,145,VALID,0.456597,
2004-03-23, 03:32:00,VALID,916.319,VALID,0,VALID,99.5094,VALID,-0.0169808,VALID,18.3225,VALID,145,VALID,0.518466,
2004-03-23, 03:33:00,VALID,916.312,VALID,0,VALID,99.3174,VALID,0,VALID,18.2868,VALID,144,VALID,0.544389,
2004-03-23, 03:34:00,VALID,916.307,VALID,0,VALID,99.1966,VALID,0.0169808,VALID,18.2252,VALID,138,VALID,0.620236,
2004-03-23, 03:35:00,VALID,916.282,VALID,0,VALID,99.1127,VALID,0,VALID,18.177,VALID,135,VALID,0.678052,